• Processing (Info)

  • MPEC 2014-K50 : 2014 KE39

    The following Minor Planet Electronic Circular may be linked-to from your own Web pages, but must not otherwise be redistributed electronically.

    A form allowing access to any MPEC is at the bottom of this page.


    Read MPEC 2014-K49 Read MPEC 2014-K51


    M.P.E.C. 2014-K50                                Issued 2014 May 26, 14:38 UT
    
         The Minor Planet Electronic Circulars contain information on unusual
             minor planets and routine data on comets.  They are published
       on behalf of Commission 20 of the International Astronomical Union by the
              Minor Planet Center, Smithsonian Astrophysical Observatory,
                              Cambridge, MA 02138, U.S.A.
    
                 Prepared using the Tamkin Foundation Computer Network
    
                                  MPC@CFA.HARVARD.EDU
                URL https://www.minorplanetcenter.net/    ISSN 1523-6714
    
                                       2014 KE39
    
    Observations:
         K14K39E* C2014 05 24.51120 17 32 14.652+04 59 42.78         21.9 wLEK050F51
         K14K39E  C2014 05 24.52227 17 32 15.204+05 00 26.07         21.7 wLEK050F51
         K14K39E  C2014 05 24.54444 17 32 16.324+05 01 51.68         21.7 wLEK050F51
         K14K39E _C2014 05 25.53015917 33 20.023+06 04 46.22         21.2 RtEK050568
         K14K39E _C2014 05 25.53141217 33 20.084+06 04 50.96         21.3 RtEK050568
         K14K39E _C2014 05 25.53266417 33 20.142+06 04 55.69         21.1 RtEK050568
         K14K39E KC2014 05 26.41446 17 34 14.73 +07 00 01.6          21.4 RoEK050291
         K14K39E KC2014 05 26.41914 17 34 14.93 +07 00 19.2          21.5 RoEK050291
         K14K39E KC2014 05 26.42384 17 34 15.16 +07 00 36.7          21.3 RoEK050291
    
    Observer details:
    291 LPL/Spacewatch II.  Observer R. A. Mastaler.  1.8-m f/2.7 reflector + CCD.
    568 Mauna Kea.  Observers R. J. Wainscoat, L. Wells.  Measurers M. Micheli,
        R. J. Wainscoat.  3.6-m Canada-France-Hawaii Telescope + CCD.
    F51 Pan-STARRS 1, Haleakala.  Observers N. Primak, A. Schultz, T. Goggia,
        M. Willman.  Measurer PS1 Science Consortium.  1.8-m Ritchey-Chretien
        + CCD.
    
    Orbital elements:
    2014 KE39                                                Earth MOID = 0.2015 AU
    Epoch 2014 May 23.0 TT = JDT 2456800.5                  MPC
    M 358.01419              (2000.0)            P               Q
    n   0.45368734     Peri.   23.61784     -0.36555775     +0.91521458
    a   1.6773806      Node   225.44414     -0.88741194     -0.39765272
    e   0.2845952      Incl.   13.76578     -0.28083372     +0.06522718
    P   2.17           H   23.3           G   0.15           U   8
    Residuals in seconds of arc
    140524 F51  0.1+  0.4-    140525 568  0.0   0.0     140526 291  0.2+  0.2-
    140524 F51  0.0   0.2+    140525 568  0.1+  0.0     140526 291  0.1-  0.1+
    140524 F51  0.1+  0.2+    140525 568  0.0   0.0     140526 291  0.1+  0.1+
    
    Ephemeris:
    2014 KE39                a,e,i = 1.68, 0.28, 14                  q = 1.2000
    Date    TT    R. A. (2000) Decl.     Delta      r     Elong.  Phase     V
    2014 04 26    16 41 17.1 -25 09 06   0.2644  1.2281   143.2    29.4    22.1
    ...
    2014 05 11    17 12 54.0 -10 22 52   0.2237  1.2078   149.4    25.2    21.6
    ...
    2014 05 19    17 25 27.2 -01 09 22   0.2168  1.2021   148.6    26.0    21.6
    ...
    2014 05 25    17 32 46.8 +05 31 12   0.2183  1.2002   146.1    28.1    21.6
    2014 05 26    17 33 50.0 +06 34 26   0.2190  1.2001   145.6    28.5    21.7
    2014 05 27    17 34 50.5 +07 36 22   0.2199  1.2000   145.0    28.9    21.7
    ...
    2014 06 02    17 40 01.6 +13 16 00   0.2278  1.2009   141.5    31.7    21.8
    ...
    2014 06 10    17 45 06.6 +19 11 03   0.2441  1.2054   137.1    35.0    22.1
    ...
    2014 06 25    17 51 36.6 +25 17 36   0.2862  1.2234   131.0    38.8    22.6
    
    A. U. Tomatic                (C) Copyright 2014 MPC           M.P.E.C. 2014-K50
    

    Read MPEC 2014-K49 Read MPEC 2014-K51


    MPEC number:

    Enter an MPEC number in one of the following forms:

    • 1997-B01 (the full form)
    • J97B01 (the packed version of the full form)
    • B01 (the abbreviated form)